Location: Coopersdale
(40.3556°N, 78.9372°W)
Time: 18:45:26
(UTC+00:00)

Transit 4A - Pass Details

Date: 23 January 2021
Orbit: 866 x 978 km, 66.8° (Epoch: 25 February)

Event Time Altitude Azimuth Distance (km) Brightness Sun altitude
Rises 02:02:03 0° 250° (WSW) 3,669 11.7 -41.6°
Reaches altitude 10° 02:05:11 10° 264° (W) 2,727 10.9 -42.2°
Enters shadow 02:09:24 23° 305° (NW) 1,961 9.9 -43.0°
Maximum altitude 02:10:09 23° 316° (NW) 1,939 - -43.1°
Drops below altitude 10° 02:15:07 10° 7° (N) 2,719 - -44.0°
Sets 02:18:16 0° 22° (NNE) 3,655 - -44.6°
